Miscellaneous Local Product
Issued by NWS Hastings, NE

Home | Current Version | Previous Version | Text Only | Print | Product List | Glossary On
Versions: 1 2 3 4 5 6 7 8 9 10 11 12 13 14 15 16 17 18 19 20 21 22 23 24 25 26 27 28 29 30 31 32 33 34 35 36 37 38 39 40 41 42 43 44 45 46 47 48 49 50
000
AXUS43 KGID 021902
MISGRI

GID CWA HOURLY WEATHER ROUNDUP
NATIONAL WEATHER SERVICE HASTINGS NE
200 PM CDT WED SEP 02 2015

NOTE: "FAIR" INDICATES FEW OR NO CLOUDS BELOW 12,000 FEET WITH NO
SIGNIFICANT WEATHER AND/OR OBSTRUCTIONS TO VISIBILITY.

...SOUTH CENTRAL NEBRASKA...

CITY           SKY/WX    TMP DP  RH WIND       PRES   REMARKS
GRAND ISLAND   SUNNY     92  64  39 S16       29.88F HX  93
HASTINGS       SUNNY     92  64  39 S9        29.88F HX  93
KEARNEY        SUNNY     91  66  43 S12       29.88F HX  94
ORD            SUNNY     96  60  30 SE12      29.84F HX  96
YORK           SUNNY     88  68  51 S13       29.89F HX  91
AURORA         SUNNY     89  65  44 S12       29.88F HX  91
LEXINGTON      SUNNY     93  62  36 S12       29.88F HX  94
HOLDREGE       SUNNY     91  59  34 S12       29.89F HX  90
HEBRON         SUNNY     91  60  35 S14G21    29.89F HX  90

...NEBRASKA PANHANDLE...

CITY           SKY/WX    TMP DP  RH WIND       PRES   REMARKS
CHADRON        MOSUNNY   96  44  16 SW12      29.87F HX  92
ALLIANCE       MOSUNNY   91  43  18 SE7       29.94F
SCOTTSBLUFF    SUNNY     90  47  22 NW7       29.95F
SIDNEY         SUNNY     92  42  17 SW9       29.99F

...WESTERN AND NORTH CENTRAL NEBRASKA...

CITY           SKY/WX    TMP DP  RH WIND       PRES   REMARKS
VALENTINE      SUNNY     97  47  18 S9        29.83F HX  93
AINSWORTH      MOSUNNY   97  53  22 S13       29.85S HX  94
ONEILL         SUNNY     95  65  37 S12G18    29.83F HX  98
BROKEN BOW     SUNNY     97  56  25 S14G20    29.86F HX  95
IMPERIAL       MOSUNNY   94  53  25 VRB3      29.92F HX  91
NORTH PLATTE   SUNNY     94  64  37 SE3       29.87F HX  95
MCCOOK         SUNNY     98  55  23 E12       29.87F HX  96

...EASTERN NEBRASKA...

CITY           SKY/WX    TMP DP  RH WIND       PRES   REMARKS
NORFOLK        SUNNY     87  71  58 S13       29.86S HX  93
SO SIOUX CITY  SUNNY     85  70  60 S16       29.86F
TEKAMAH        SUNNY     86  73  65 S13       29.87F HX  93
COLUMBUS       SUNNY     88  68  51 SE9       29.87F HX  91
ALBION         SUNNY     87  69  54 SE10      29.87S HX  91
OMAHA EPPLEY   MOSUNNY   86  70  58 S17G26    29.88F HX  90
OFFUTT AFB     SUNNY     86  71  61 S16G24    29.89F HX  91
MILLARD        SUNNY     85  71  62 S12G22    29.89F HX  90
LINCOLN        SUNNY     90  70  51 S17       29.88F HX  95
NEBRASKA CITY  SUNNY     87  67  51 S15G21    29.92F
BEATRICE       SUNNY     88  69  54 S14G24    29.89F HX  92
FALLS CITY     SUNNY     87  69  54 S18G28    29.93F HX  91

...NORTHERN KANSAS...

CITY           SKY/WX    TMP DP  RH WIND       PRES   REMARKS
GOODLAND       MOSUNNY   94  49  21 S10       29.95F HX  90
HILL CITY      SUNNY     98  56  24 S8        29.87F HX  96
NORTON         CLEAR     93  52  24 E10       29.87F HX  90
PHILLIPSBURG   SUNNY     97  57  26 SE10      29.87F HX  95
SMITH CENTER   SUNNY     93  57  29 S14       29.88F HX  92
HAYS           SUNNY     97  59  28 S18G26    29.87F HX  96
RUSSELL        SUNNY     97  59  28 S20G28    29.87F HX  96
CONCORDIA      SUNNY     93  64  38 S21G26    29.89F HX  94
SALINA         SUNNY     95  63  34 S22G33    29.89F HX  96
TOPEKA         SUNNY     87  72  60 S13G22    29.97F HX  93



USA.gov is the U.S. government's official web portal to all federal, state and local government web resources and services.